IU2EVW-3 Weather Reports


time (UTC)temp
C
wind
direction
speed
KPH
gust
KPH
rain 1hr
cm
rain 24hr
cm
rain mn
cm
humidity
%
barometer
mb
20260507204203 16 0.0 0.0 0.00 0.00 0.00 63 1014.5
20260507202202 16 0.0 0.0 0.00 0.00 0.00 59 1014.5
20260507200200 17 0.0 0.0 0.00 0.00 0.00 55 1014.1
20260507194159 17 0.0 0.0 0.00 0.00 0.00 53 1013.8
20260507192158 17 0.0 0.0 0.00 0.00 0.00 52 1013.5
20260507190157 17 0.0 0.0 0.00 0.00 0.00 50 1013.2
20260507184156 18 0.0 0.0 0.00 0.00 0.00 48 1013.0
20260507182154 18 0.0 0.0 0.00 0.00 0.00 46 1012.8
20260507180153 20 0.0 0.0 0.00 0.00 0.00 44 1012.5
20260507174152 22 0.0 0.0 0.00 0.00 0.00 42 1012.3
20260507172151 22 0.0 0.0 0.00 0.00 0.00 40 1012.1
20260507170149 21 0.0 0.0 0.00 0.00 0.00 39 1012.2
20260507164148 22 0.0 0.0 0.00 0.00 0.00 38 1012.1
20260507162147 20 0.0 0.0 0.00 0.00 0.00 43 1012.1
20260507160146 20 0.0 0.0 0.00 0.00 0.00 46 1012.1
20260507154145 20 0.0 0.0 0.00 0.00 0.00 44 1012.1
20260507152144 21 0.0 0.0 0.00 0.00 0.00 44 1012.2
20260507150143 21 0.0 0.0 0.00 0.00 0.00 44 1012.2
20260507144141 21 0.0 0.0 0.00 0.00 0.00 45 1012.3
20260507142140 21 0.0 0.0 0.00 0.00 0.00 45 1012.3
20260507140139 20 0.0 0.0 0.00 0.00 0.00 41 1012.6
20260507134138 20 0.0 0.0 0.00 0.00 0.00 47 1012.6
20260507132137 20 0.0 0.0 0.00 0.00 0.00 48 1012.9
20260507130136 20 0.0 0.0 0.00 0.00 0.00 48 1012.9
20260507124134 19 0.0 0.0 0.00 0.00 0.00 50 1013.2
20260507122133 19 0.0 0.0 0.00 0.00 0.00 50 1013.3
20260507120132 18 0.0 0.0 0.00 0.00 0.00 51 1013.4
20260507114131 18 0.0 0.0 0.00 0.00 0.00 51 1013.7
20260507112129 17 0.0 0.0 0.00 0.00 0.00 55 1013.9
20260507110128 20 0.0 0.0 0.00 0.00 0.00 47 1013.7
20260507104127 18 0.0 0.0 0.00 0.00 0.00 50 1014.1
20260507102126 18 0.0 0.0 0.00 0.00 0.00 51 1014.3
20260507100125 17 0.0 0.0 0.00 0.00 0.00 53 1014.4
20260507094123 17 0.0 0.0 0.00 0.00 0.00 57 1014.5
20260507092122 16 0.0 0.0 0.00 0.00 0.00 58 1014.5
20260507090121 16 0.0 0.0 0.00 0.00 0.00 58 1014.4
20260507084120 15 0.0 0.0 0.00 0.00 0.00 64 1014.5
20260507082119 14 0.0 0.0 0.00 0.00 0.00 67 1014.6
20260507080117 14 0.0 0.0 0.00 0.00 0.00 71 1014.5
20260507074116 13 0.0 0.0 0.00 0.00 0.00 73 1014.3
20260507072115 12 0.0 0.0 0.00 0.00 0.00 75 1014.4
20260507070114 13 0.0 0.0 0.00 0.00 0.00 74 1014.2
20260507064113 13 0.0 0.0 0.00 0.00 0.00 72 1014.0
20260507062111 14 0.0 0.0 0.00 0.00 0.00 69 1013.9
20260507060110 12 0.0 0.0 0.00 0.00 0.00 77 1013.8
20260507054109 12 0.0 0.0 0.00 0.00 0.00 78 1013.6
20260507052108 12 0.0 0.0 0.00 0.00 0.00 79 1013.4
20260507050107 11 0.0 0.0 0.00 0.00 0.00 78 1013.1
20260507044106 11 0.0 0.0 0.00 0.00 0.00 79 1013.0
20260507042104 11 0.0 0.0 0.00 0.00 0.00 78 1012.8
20260507034102 11 0.0 0.0 0.00 0.00 0.00 77 1012.6
20260507032101 11 0.0 0.0 0.00 0.00 0.00 76 1012.6
20260507030059 11 0.0 0.0 0.00 0.00 0.00 76 1012.5
20260507024058 11 0.0 0.0 0.00 0.00 0.00 78 1012.5
20260507022057 11 0.0 0.0 0.00 0.00 0.00 77 1012.4
20260507020056 11 0.0 0.0 0.00 0.00 0.00 75 1012.4
20260507014055 12 0.0 0.0 0.00 0.00 0.00 77 1012.2
20260507012053 12 0.0 0.0 0.00 0.00 0.00 76 1012.3
20260507010052 12 0.0 0.0 0.00 0.00 0.00 75 1012.4
20260507004051 12 0.0 0.0 0.00 0.00 0.00 72 1012.6
20260507002050 12 0.0 0.0 0.00 0.00 0.00 69 1012.3
20260507000049 12 0.0 0.0 0.00 0.00 0.00 69 1012.3
20260506234047 12 0.0 0.0 0.00 0.00 0.00 69 1012.3
20260506232046 12 0.0 0.0 0.00 0.00 0.00 70 1012.1
20260506230045 12 0.0 0.0 0.00 0.00 0.00 70 1011.8
20260506224044 12 0.0 0.0 0.00 0.00 0.00 69 1011.8
20260506222043 12 0.0 0.0 0.00 0.00 0.00 69 1011.8
20260506220041 12 0.0 0.0 0.00 0.00 0.00 69 1011.7
20260506214040 12 0.0 0.0 0.00 0.00 0.00 69 1011.7
20260506212039 12 0.0 0.0 0.00 0.00 0.00 70 1011.6
20260506210038 12 0.0 0.0 0.00 0.00 0.00 70 1011.5